FW1757 Weather Reports


Display with metric or nautical units.
time (UTC)temp
F
wind
direction
speed
MPH
gust
MPH
rain 1hr
in
rain 24hr
in
rain mn
in
humidity
%
barometer
mb
20260901144523 60 271 0.0 0.0 0.00 0.00 0.00 71 1007.6
20260901144023 60 244 0.0 0.0 0.00 0.00 0.00 71 1007.7
20260901143523 61 211 0.0 0.0 0.00 0.00 0.00 71 1007.6
20260901143022 61 237 0.0 0.0 0.00 0.00 0.00 71 1007.6
20260901142521 61 244 0.0 0.0 0.00 0.00 0.00 71 1007.5
20260901142024 61 254 0.0 0.0 0.00 0.00 0.00 71 1007.6
20260901141531 61 242 0.0 0.0 0.00 0.00 0.00 71 1007.5
20260901141023 61 232 0.0 0.0 0.00 0.00 0.00 71 1007.5
20260901140520 61 205 0.0 0.0 0.00 0.00 0.00 71 1007.3
20260901140022 61 234 0.0 0.0 0.00 0.00 0.00 71 1007.3
20260901135521 61 287 0.0 0.0 0.00 0.00 0.00 71 1007.2
20260901135019 61 261 0.0 0.0 0.00 0.00 0.00 71 1007.3
20260901134518 61 281 0.0 0.0 0.00 0.00 0.00 70 1007.3
20260901134017 61 241 0.0 0.0 0.00 0.00 0.00 70 1007.1
20260901133520 61 265 0.0 0.0 0.00 0.00 0.00 70 1007.1
20260901133018 61 300 0.0 0.0 0.00 0.00 0.00 70 1007.0
20260901132515 61 252 0.0 0.0 0.00 0.00 0.00 70 1006.9
20260901132018 61 286 0.0 0.0 0.00 0.00 0.00 70 1006.9
20260901131518 61 274 0.0 0.0 0.00 0.00 0.00 70 1006.9
20260901131019 62 292 0.0 0.0 0.00 0.00 0.00 70 1006.9
20260901130615 62 254 0.0 0.0 0.00 0.00 0.00 70 1006.8
20260901130013 62 301 0.0 0.0 0.00 0.00 0.00 70 1006.8
20260901125511 62 286 0.0 0.0 0.00 0.00 0.00 69 1006.7
20260901125011 62 263 0.0 0.0 0.00 0.00 0.00 69 1006.8
20260901124510 62 248 0.0 0.0 0.00 0.00 0.00 69 1006.7
20260901124008 62 233 0.0 0.0 0.00 0.00 0.00 69 1006.9
20260901123508 63 247 0.0 0.0 0.00 0.00 0.00 69 1006.6
20260901123010 63 271 0.0 0.0 0.00 0.00 0.00 69 1006.6
20260901122506 63 256 0.0 0.0 0.00 0.00 0.00 68 1006.6
20260901122006 63 289 0.0 0.0 0.00 0.00 0.00 68 1006.6
20260901121506 63 287 0.0 0.0 0.00 0.00 0.00 68 1006.6
20260901121010 63 304 0.0 0.0 0.00 0.00 0.00 68 1006.7
20260901120505 63 242 0.0 0.0 0.00 0.00 0.00 67 1006.7
20260901120005 63 244 0.0 0.0 0.00 0.00 0.00 67 1006.6
20260901115504 64 246 0.0 0.0 0.00 0.00 0.00 67 1006.7
20260901115003 64 247 0.0 0.0 0.00 0.00 0.00 67 1006.8
20260901114502 64 267 0.0 0.0 0.00 0.00 0.00 67 1006.6
20260901114003 64 209 0.0 0.0 0.00 0.00 0.00 67 1006.6
20260901113502 64 261 0.0 0.0 0.00 0.00 0.00 67 1006.6
20260901113000 64 230 0.0 0.0 0.00 0.00 0.00 66 1006.6
20260901112600 64 258 0.0 0.0 0.00 0.00 0.00 66 1006.6
20260901112104 64 259 0.0 0.0 0.00 0.00 0.00 66 1006.5
20260901111603 65 260 0.0 0.0 0.00 0.00 0.00 66 1006.5
20260901111059 65 265 0.0 0.0 0.00 0.00 0.00 65 1006.5
20260901110558 65 228 0.0 0.0 0.00 0.00 0.00 65 1006.5
20260901110059 65 273 0.0 0.0 0.00 0.00 0.00 65 1006.3
20260901105559 65 277 0.0 0.0 0.00 0.00 0.00 65 1006.5
20260901105057 65 242 0.0 0.0 0.00 0.00 0.00 64 1006.5
20260901104601 65 282 0.0 0.0 0.00 0.00 0.00 64 1006.4
20260901104057 65 242 0.0 0.0 0.00 0.00 0.00 64 1006.4
20260901103556 65 198 0.0 0.0 0.00 0.00 0.00 63 1006.3
20260901103059 66 269 0.0 0.0 0.00 0.00 0.00 63 1006.3
20260901102557 66 242 0.0 0.0 0.00 0.00 0.00 63 1006.3
20260901102057 66 253 0.0 0.0 0.00 0.00 0.00 62 1006.4
20260901101606 66 263 0.0 0.0 0.00 0.00 0.00 63 1006.5
20260901101056 66 283 0.0 0.0 0.00 0.00 0.00 63 1006.4
20260901100556 65 224 0.0 0.0 0.00 0.00 0.00 63 1006.3
20260901100107 65 256 0.0 0.0 0.00 0.00 0.00 63 1006.2
20260901095556 65 250 0.0 0.0 0.00 0.00 0.00 64 1006.2
20260901095055 65 223 0.0 0.0 0.00 0.00 0.00 64 1006.4
20260901094555 65 274 0.0 0.0 0.00 0.00 0.00 64 1006.4
20260901094056 65 309 0.0 0.0 0.00 0.00 0.00 63 1006.4
20260901093554 65 256 0.0 0.0 0.00 0.00 0.00 63 1006.4
20260901093054 65 252 0.0 0.0 0.00 0.00 0.00 63 1006.4
20260901092554 65 252 0.0 0.0 0.00 0.00 0.00 63 1006.3
20260901092054 65 252 0.0 0.0 0.00 0.00 0.00 62 1006.4
20260901091554 65 266 0.0 0.0 0.00 0.00 0.00 63 1006.4
20260901091054 65 256 0.0 0.0 0.00 0.00 0.00 62 1006.5
20260901090554 65 269 0.0 0.0 0.00 0.00 0.00 62 1006.3
20260901090100 65 278 0.0 0.0 0.00 0.00 0.00 62 1006.2
20260901085552 65 273 0.0 0.0 0.00 0.00 0.00 61 1006.4
20260901085051 65 248 0.0 0.0 0.00 0.00 0.00 59 1006.4
20260901084607 65 272 0.0 0.0 0.00 0.00 0.00 59 1006.4
20260901084050 65 275 0.0 0.0 0.00 0.00 0.00 57 1006.4
20260901083550 65 242 0.0 0.0 0.00 0.00 0.00 56 1006.5
20260901083049 65 242 0.0 0.0 0.00 0.00 0.00 56 1006.5
20260901082548 65 242 0.0 0.0 0.00 0.00 0.00 55 1006.6
20260901082048 65 242 0.0 0.0 0.00 0.00 0.00 54 1006.6
20260901081547 66 242 0.0 0.0 0.00 0.00 0.00 53 1006.6
20260901081048 66 244 0.0 0.0 0.00 0.00 0.00 52 1006.6
20260901080546 66 244 0.0 0.0 0.00 0.00 0.00 52 1006.6
20260901080105 66 257 0.0 0.0 0.00 0.00 0.00 51 1006.6
20260901075546 66 261 0.0 0.0 0.00 0.00 0.00 51 1006.6
20260901075045 66 250 0.0 0.0 0.00 0.00 0.00 51 1006.6
20260901074547 66 254 0.0 0.0 0.00 0.00 0.00 50 1006.5
20260901074047 66 254 0.0 0.0 0.00 0.00 0.00 50 1006.4
20260901073543 66 254 0.0 0.0 0.00 0.00 0.00 49 1006.4
20260901073049 66 254 0.0 0.0 0.00 0.00 0.00 49 1006.4
20260901072542 66 254 0.0 0.0 0.00 0.00 0.00 48 1006.4
20260901072048 66 254 0.0 0.0 0.00 0.00 0.00 48 1006.3
20260901071541 66 254 0.0 0.0 0.00 0.00 0.00 48 1006.3
20260901071040 66 254 0.0 0.0 0.00 0.00 0.00 47 1006.3
20260901070543 66 257 0.0 0.0 0.00 0.00 0.00 47 1006.3
20260901070039 66 215 0.0 0.0 0.00 0.00 0.00 47 1006.2
20260901065539 66 215 0.0 0.0 0.00 0.00 0.00 46 1006.1
20260901065038 66 215 0.0 0.0 0.00 0.00 0.00 46 1006.2
20260901064538 66 215 0.0 0.0 0.00 0.00 0.00 46 1006.2
20260901064037 66 215 0.0 0.0 0.00 0.00 0.00 46 1006.1
20260901063537 66 215 0.0 0.0 0.00 0.00 0.00 46 1006.1
20260901063037 66 215 0.0 0.0 0.00 0.00 0.00 45 1006.2
20260901062537 66 215 0.0 0.0 0.00 0.00 0.00 45 1006.2
20260901062037 66 213 0.0 0.0 0.00 0.00 0.00 45 1006.2
20260901061537 66 211 0.0 0.0 0.00 0.00 0.00 45 1006.3
20260901061037 66 159 0.0 0.0 0.00 0.00 0.00 44 1006.2
20260901060537 66 159 0.0 0.0 0.00 0.00 0.00 44 1006.2
20260901060041 67 159 0.0 0.0 0.00 0.00 0.00 43 1006.2
20260901055536 67 159 0.0 0.0 0.00 0.00 0.00 43 1006.2
20260901055036 67 159 0.0 0.0 0.00 0.00 0.00 42 1006.2
20260901054537 68 159 0.0 0.0 0.00 0.00 0.00 41 1006.4
20260901054036 68 159 0.0 0.0 0.00 0.00 0.00 41 1006.5
20260901053535 68 159 0.0 0.0 0.00 0.00 0.00 41 1006.5
20260901053045 68 159 0.0 0.0 0.00 0.00 0.00 41 1006.5
20260901052535 68 159 0.0 0.0 0.00 0.00 0.00 40 1006.5
20260901052035 69 159 0.0 0.0 0.00 0.00 0.00 40 1006.5
20260901051535 69 159 0.0 0.0 0.00 0.00 0.00 39 1006.6
20260901051035 69 159 0.0 0.0 0.00 0.00 0.00 39 1006.5
20260901050537 69 159 0.0 0.0 0.00 0.00 0.00 38 1006.5
20260901050036 69 159 0.0 0.0 0.00 0.00 0.00 38 1006.3
20260901045536 69 159 0.0 0.0 0.00 0.00 0.00 38 1006.4
20260901045034 70 159 0.0 0.0 0.00 0.00 0.00 38 1006.3
20260901044535 70 159 0.0 0.0 0.00 0.00 0.00 37 1006.3
20260901044035 70 159 0.0 0.0 0.00 0.00 0.00 37 1006.2
20260901043535 70 159 0.0 0.0 0.00 0.00 0.00 37 1006.2
20260901043033 70 159 0.0 0.0 0.00 0.00 0.00 37 1006.2
20260901042533 70 159 0.0 0.0 0.00 0.00 0.00 36 1006.2
20260901042037 70 159 0.0 0.0 0.00 0.00 0.00 36 1006.2
20260901041540 70 159 0.0 0.0 0.00 0.00 0.00 36 1006.2
20260901041036 70 159 0.0 0.0 0.00 0.00 0.00 36 1006.1
20260901040537 70 159 0.0 0.0 0.00 0.00 0.00 35 1006.0
20260901040036 70 159 0.0 0.0 0.00 0.00 0.00 35 1006.0
20260901035536 70 155 0.0 0.0 0.00 0.00 0.00 34 1005.9
20260901035032 70 155 0.0 0.0 0.00 0.00 0.00 35 1005.8
20260901034533 70 155 0.0 0.0 0.00 0.00 0.00 35 1005.9
20260901034032 70 155 0.0 0.0 0.00 0.00 0.00 34 1005.8
20260901033535 70 155 0.0 0.0 0.00 0.00 0.00 34 1005.8
20260901033032 70 155 0.0 0.0 0.00 0.00 0.00 34 1005.7
20260901032532 70 155 0.0 0.0 0.00 0.00 0.00 34 1005.6
20260901032032 70 155 0.0 0.0 0.00 0.00 0.00 35 1005.5
20260901031531 70 155 0.0 0.0 0.00 0.00 0.00 34 1005.5
20260901031032 71 155 0.0 0.0 0.00 0.00 0.00 35 1005.6
20260901030533 71 155 0.0 0.0 0.00 0.00 0.00 34 1005.6
20260901030031 71 155 0.0 0.0 0.00 0.00 0.00 34 1005.5
20260901025531 72 155 0.0 0.0 0.00 0.00 0.00 33 1005.5
20260901025031 73 155 0.0 0.0 0.00 0.00 0.00 33 1005.5
20260901024530 74 155 0.0 0.0 0.00 0.00 0.00 32 1005.5
20260901024033 74 155 0.0 0.0 0.00 0.00 0.00 31 1005.4
20260901023529 75 155 0.0 0.0 0.00 0.00 0.00 31 1005.3
20260901023029 76 155 0.0 0.0 0.00 0.00 0.00 30 1005.4
20260901022530 77 155 0.0 0.0 0.00 0.00 0.00 29 1005.4
20260901022030 78 155 0.0 0.0 0.00 0.00 0.00 28 1005.4
20260901021534 79 155 0.0 0.0 0.00 0.00 0.00 27 1005.4
20260901021029 81 155 0.0 0.0 0.00 0.00 0.00 27 1005.4
20260901020528 82 155 0.0 0.0 0.00 0.00 0.00 26 1005.3
20260901020029 83 155 0.0 0.0 0.00 0.00 0.00 25 1005.4
20260901015527 84 155 0.0 0.0 0.00 0.00 0.00 24 1005.5
20260901015026 85 155 0.0 0.0 0.00 0.00 0.00 24 1005.6
20260901014526 85 155 0.0 0.0 0.00 0.00 0.00 23 1005.5
20260901014026 86 155 0.0 0.0 0.00 0.00 0.00 21 1005.6
20260901013526 86 155 0.0 0.0 0.00 0.00 0.00 21 1005.5
20260901013026 87 155 0.0 0.0 0.00 0.00 0.00 21 1005.6
20260901012525 87 155 0.0 0.0 0.00 0.00 0.00 21 1005.6
20260901012025 87 155 0.0 0.0 0.00 0.00 0.00 21 1005.6
20260901011535 87 151 0.0 0.0 0.00 0.00 0.00 21 1005.7
20260901011025 88 151 0.0 0.0 0.00 0.00 0.00 20 1005.6
20260901010525 88 150 0.0 0.0 0.00 0.00 0.00 20 1005.6
20260901010035 88 150 0.0 0.0 0.00 0.00 0.00 20 1005.6
20260901005524 88 199 0.0 0.0 0.00 0.00 0.00 20 1005.7
20260901005024 88 152 0.0 0.0 0.00 0.00 0.00 20 1005.7
20260901004525 88 159 0.0 0.0 0.00 0.00 0.00 20 1005.7
20260901004023 89 150 0.0 0.0 0.00 0.00 0.00 20 1005.7
20260901003524 89 147 0.0 0.0 0.00 0.00 0.00 20 1005.8
20260901003023 89 128 0.0 0.0 0.00 0.00 0.00 19 1005.8
20260901002523 89 167 0.0 0.0 0.00 0.00 0.00 20 1005.9
20260901002023 89 150 0.0 0.0 0.00 0.00 0.00 19 1005.8
20260901001527 89 147 0.0 0.0 0.00 0.00 0.00 20 1005.9
20260901001021 89 167 0.0 0.0 0.00 0.00 0.00 20 1006.0
20260901000520 89 155 0.0 0.0 0.00 0.00 0.00 19 1006.1
20260901000021 89 117 0.0 0.0 0.00 0.00 0.00 19 1006.2
20260831235521 89 79 0.0 0.0 0.00 0.00 0.00 20 1006.2
20260831235019 89 188 0.0 0.0 0.00 0.00 0.00 20 1006.2
20260831234521 89 141 0.0 0.0 0.00 0.00 0.00 20 1006.5
20260831234019 89 128 0.0 0.0 0.00 0.00 0.00 19 1006.4
20260831233518 89 159 0.0 0.0 0.00 0.00 0.00 19 1006.4
20260831233034 89 126 0.0 0.0 0.00 0.00 0.00 20 1006.4
20260831232517 89 134 0.0 0.0 0.00 0.00 0.00 20 1006.5
20260831232021 90 143 0.0 0.0 0.00 0.00 0.00 19 1006.5
20260831231520 89 156 0.0 0.0 0.00 0.00 0.00 20 1006.5
20260831231015 89 169 0.0 0.0 0.00 0.00 0.00 19 1006.7
20260831230515 89 68 0.0 0.0 0.00 0.00 0.00 19 1006.7
20260831230014 89 143 0.0 0.0 0.00 0.00 0.00 20 1006.8
20260831225514 89 138 0.0 0.0 0.00 0.00 0.00 20 1006.9
20260831225011 89 161 0.0 0.0 0.00 0.00 0.00 20 1007.0
20260831224510 89 155 0.0 0.0 0.00 0.00 0.00 20 1007.2
20260831224010 88 157 0.0 0.0 0.00 0.00 0.00 20 1007.2
20260831223508 88 150 0.0 0.0 0.00 0.00 0.00 21 1007.3
20260831223008 88 133 0.0 0.0 0.00 0.00 0.00 21 1007.5
20260831222506 88 155 0.0 0.0 0.00 0.00 0.00 21 1007.6
20260831222006 87 158 0.0 0.0 0.00 0.00 0.00 21 1007.7
20260831221504 87 162 0.0 0.0 0.00 0.00 0.00 22 1007.7
20260831221004 87 142 0.0 0.0 0.00 0.00 0.00 22 1007.8
20260831220503 87 119 0.0 0.0 0.00 0.00 0.00 22 1007.8
20260831220004 87 151 0.0 0.0 0.00 0.00 0.00 23 1007.9
20260831215501 86 137 0.0 0.0 0.00 0.00 0.00 23 1008.0
20260831215100 86 172 0.0 0.0 0.00 0.00 0.00 23 1008.1
20260831214609 86 155 0.0 0.0 0.00 0.00 0.00 23 1008.2
20260831214101 85 144 0.0 0.0 0.00 0.00 0.00 24 1008.2
20260831213556 85 165 0.0 0.0 0.00 0.00 0.00 24 1008.3
20260831213055 84 130 0.0 0.0 0.00 0.00 0.00 24 1008.3
20260831212554 84 69 0.0 0.0 0.00 0.00 0.00 24 1008.4
20260831212054 84 121 0.0 0.0 0.00 0.00 0.00 25 1008.5
20260831211552 83 123 0.0 0.0 0.00 0.00 0.00 25 1008.5
20260831211050 83 86 0.0 0.0 0.00 0.00 0.00 25 1008.6
20260831210553 83 127 0.0 0.0 0.00 0.00 0.00 25 1008.5
20260831210049 83 181 0.0 0.0 0.00 0.00 0.00 25 1008.6
20260831205552 83 116 0.0 0.0 0.00 0.00 0.00 26 1008.8
20260831205047 83 126 0.0 0.0 0.00 0.00 0.00 26 1008.8
20260831204546 82 149 0.0 0.0 0.00 0.00 0.00 28 1008.9
20260831204045 81 92 0.0 0.0 0.00 0.00 0.00 27 1008.9
20260831203545 81 107 0.0 0.0 0.00 0.00 0.00 27 1009.0
20260831203042 81 112 0.0 0.0 0.00 0.00 0.00 28 1009.1
20260831202542 81 77 0.0 0.0 0.00 0.00 0.00 29 1009.4
20260831202041 81 102 0.0 0.0 0.00 0.00 0.00 30 1009.6
20260831201539 81 127 0.0 0.0 0.00 0.00 0.00 30 1009.7
20260831201039 81 148 0.0 0.0 0.00 0.00 0.00 30 1009.9
20260831200538 80 148 0.0 0.0 0.00 0.00 0.00 31 1010.1
20260831200039 80 94 0.0 0.0 0.00 0.00 0.00 31 1010.0
20260831195534 79 137 0.0 0.0 0.00 0.00 0.00 32 1010.1
20260831195033 79 78 0.0 0.0 0.00 0.00 0.00 32 1010.2
20260831194533 79 100 0.0 0.0 0.00 0.00 0.00 32 1010.3
20260831194030 78 144 0.0 0.0 0.00 0.00 0.00 33 1010.3
20260831193531 78 176 0.0 0.0 0.00 0.00 0.00 34 1010.4
20260831193034 77 104 0.0 0.0 0.00 0.00 0.00 34 1010.5
20260831192527 77 156 0.0 0.0 0.00 0.00 0.00 34 1010.6
20260831192025 76 128 0.0 0.0 0.00 0.00 0.00 35 1010.7
20260831191524 76 132 0.0 0.0 0.00 0.00 0.00 35 1010.7
20260831191025 76 159 0.0 0.0 0.00 0.00 0.00 36 1010.8
20260831190522 75 89 0.0 0.0 0.00 0.00 0.00 35 1011.0
20260831190024 75 71 0.0 0.0 0.00 0.00 0.00 35 1011.0
20260831185519 75 163 0.0 0.0 0.00 0.00 0.00 37 1011.0
20260831185018 74 153 0.0 0.0 0.00 0.00 0.00 37 1011.2
20260831184517 74 57 0.0 0.0 0.00 0.00 0.00 37 1011.3
20260831184016 74 127 0.0 0.0 0.00 0.00 0.00 38 1011.3
20260831183514 73 146 0.0 0.0 0.00 0.00 0.00 38 1011.5
20260831183013 73 71 0.0 0.0 0.00 0.00 0.00 39 1011.5
20260831182514 73 200 0.0 0.0 0.00 0.00 0.00 39 1011.7
20260831182012 72 135 0.0 0.0 0.00 0.00 0.00 40 1011.8
20260831181511 72 136 0.0 0.0 0.00 0.00 0.00 40 1011.9
20260831181010 72 82 0.0 0.0 0.00 0.00 0.00 40 1012.0
20260831180508 72 126 0.0 0.0 0.00 0.00 0.00 42 1012.0
20260831180008 71 65 0.0 0.0 0.00 0.00 0.00 43 1012.1
20260831175506 70 57 0.0 0.0 0.00 0.00 0.00 44 1012.1
20260831175004 70 113 0.0 0.0 0.00 0.00 0.00 44 1012.2
20260831174506 69 104 0.0 0.0 0.00 0.00 0.00 47 1012.1
20260831174001 68 153 0.0 0.0 0.00 0.00 0.00 48 1012.2
20260831173559 67 95 0.0 0.0 0.00 0.00 0.00 50 1012.2
20260831173059 66 34 0.0 0.0 0.00 0.00 0.00 58 1012.3
20260831172557 66 38 0.0 0.0 0.00 0.00 0.00 61 1012.3
20260831172056 65 40 0.0 0.0 0.00 0.00 0.00 62 1012.3
20260831171555 64 40 0.0 0.0 0.00 0.00 0.00 63 1012.5
20260831171053 64 12 0.0 0.0 0.00 0.00 0.00 64 1012.5
20260831170552 63 55 0.0 0.0 0.00 0.00 0.00 65 1012.4
20260831170051 62 51 0.0 0.0 0.00 0.00 0.00 66 1012.5
20260831165549 62 49 0.0 0.0 0.00 0.00 0.00 67 1012.4
20260831165047 61 51 0.0 0.0 0.00 0.00 0.00 67 1012.6
20260831164549 60 51 0.0 0.0 0.00 0.00 0.00 68 1012.7
20260831164045 60 46 0.0 0.0 0.00 0.00 0.00 69 1012.7
20260831163544 59 28 0.0 0.0 0.00 0.00 0.00 69 1012.7
20260831163045 59 40 0.0 0.0 0.00 0.00 0.00 71 1012.8
20260831162544 58 39 0.0 0.0 0.00 0.00 0.00 71 1012.8
20260831162045 58 23 0.0 0.0 0.00 0.00 0.00 71 1012.8
20260831161550 57 38 0.0 0.0 0.00 0.00 0.00 71 1013.0
20260831161043 57 22 0.0 0.0 0.00 0.00 0.00 72 1013.0
20260831160542 56 26 0.0 0.0 0.00 0.00 0.00 72 1013.0
20260831160042 56 306 0.0 0.0 0.00 0.00 0.00 72 1013.0
20260831155542 56 306 0.0 0.0 0.00 0.00 0.00 72 1013.0
20260831155042 55 306 0.0 0.0 0.00 0.00 0.00 72 1013.1
20260831154542 55 306 0.0 0.0 0.00 0.00 0.00 68 1013.1
20260831154043 54 306 0.0 0.0 0.00 0.00 0.00 67 1013.1
20260831153544 54 248 0.0 0.0 0.00 0.00 0.00 61 1013.1
20260831153041 54 248 0.0 0.0 0.00 0.00 0.00 53 1013.1
20260831152541 53 248 0.0 0.0 0.00 0.00 0.00 43 1013.1
20260831152041 53 248 0.0 0.0 0.00 0.00 0.00 40 1013.2
20260831151540 53 248 0.0 0.0 0.00 0.00 0.00 39 1013.2
20260831151040 52 248 0.0 0.0 0.00 0.00 0.00 38 1013.0
20260831150542 52 248 0.0 0.0 0.00 0.00 0.00 39 1013.1
20260831150040 52 248 0.0 0.0 0.00 0.00 0.00 39 1013.0
20260831145539 51 248 0.0 0.0 0.00 0.00 0.00 36 1012.9
20260831145038 51 248 0.0 0.0 0.00 0.00 0.00 38 1013.0